カタログに戻る

STARLINK-34367

運用中通信VLEO
NORAD 64452·PAYLOAD·🇺🇸 United States

打ち上げ Jun 18, 2025 から Cape Canaveral Space Force Station

Loading…

次のパス (今後24時間)

TLE

最新Source: CelesTrak SupGP

元期: Sep 15, 2026, 01:46 UTC

1 64452C 25130Q   26258.07409722  .00026853  00000+0  79336-3 0  2588
2 64452  53.1566 286.7225 0001201  90.1669  99.7812 15.34378082    14

AllMySatでSTARLINK-34367をリアルタイム追跡

Download on the App Store